GFSWCAN_prec_precacc24_234.txt.gz
Total_Precipitation_Accumulation
0.07 0.06 0.07 0.07 0.08 0.09 0.10 0.13 0.17 0.17 0.24 0.32 0.33 0.32 0.35 0.41 0.53 0.56 0.56 0.51 0.99 1.35 0.88 0.45 0.51 0.56 0.39 0.40 0.80 0.85 0.54 0.87 1.26 1.85 2.44 2.18 1.31 0.70 0.28 0.07 0.02 0.07 0.26 0.45 0.41 0.84 0.85 0.04 0.00 0.00 0.00 0.00 0.00 0.00
0.03 0.04 0.06 0.08 0.09 0.09 0.07 0.11 0.15 0.17 0.21 0.25 0.30 0.28 0.27 0.31 0.42 0.54 0.49 0.40 0.51 1.09 1.01 0.38 0.39 0.50 0.62 0.71 0.79 1.09 1.03 0.86 0.74 0.99 1.51 1.27 1.24 0.86 0.39 0.20 0.04 0.13 0.14 0.11 0.14 0.19 0.03 0.00 0.00 0.00 0.00 0.00 0.00 0.00
0.02 0.03 0.05 0.10 0.11 0.11 0.09 0.08 0.10 0.16 0.21 0.23 0.24 0.23 0.23 0.25 0.35 0.49 0.37 0.38 0.50 0.87 0.86 0.38 0.17 0.14 0.27 0.52 0.85 1.36 1.50 1.08 1.07 1.11 1.30 1.48 1.59 1.27 0.82 0.45 0.09 0.04 0.02 0.07 0.12 0.05 0.00 0.01 0.00 0.00 0.00 0.00 0.00 0.00
0.04 0.05 0.05 0.04 0.06 0.09 0.10 0.10 0.11 0.12 0.16 0.23 0.25 0.21 0.23 0.25 0.33 0.48 0.39 0.31 0.30 0.46 0.57 0.35 0.04 0.01 0.02 0.11 0.38 0.74 0.93 1.12 1.35 1.67 1.95 1.98 1.68 1.22 0.90 0.50 0.27 0.08 0.05 0.08 0.14 0.11 0.06 0.04 0.04 0.05 0.05 0.03 0.02 0.01
0.14 0.07 0.03 0.04 0.05 0.05 0.09 0.08 0.10 0.14 0.16 0.18 0.22 0.25 0.25 0.31 0.46 0.53 0.40 0.19 0.15 0.22 0.49 0.23 0.01 0.01 0.01 0.02 0.10 0.30 0.58 0.86 1.11 1.30 1.62 1.41 1.01 0.82 0.79 0.66 0.38 0.05 0.04 0.07 0.23 0.25 0.29 0.17 0.06 0.06 0.07 0.06 0.05 0.06
0.23 0.23 0.17 0.12 0.08 0.06 0.07 0.08 0.11 0.09 0.17 0.17 0.19 0.23 0.28 0.40 0.66 1.17 2.00 1.12 0.20 0.15 0.34 0.29 0.09 0.01 0.02 0.04 0.10 0.22 0.39 0.69 0.94 0.93 0.91 0.81 0.43 0.32 0.75 0.50 0.05 0.00 0.00 0.00 0.08 0.21 0.26 0.14 0.06 0.04 0.04 0.03 0.03 0.03
0.11 0.13 0.14 0.16 0.17 0.10 0.06 0.05 0.12 0.10 0.14 0.18 0.16 0.23 0.35 0.55 0.91 1.83 1.36 0.74 0.27 0.21 0.50 0.45 0.11 0.04 0.08 0.10 0.14 0.24 0.40 0.51 0.48 0.64 0.65 0.39 0.18 0.30 0.84 0.41 0.01 0.00 0.00 0.00 0.02 0.06 0.02 0.00 0.00 0.00 0.01 0.01 0.01 0.00
0.04 0.04 0.06 0.14 0.24 0.21 0.04 0.02 0.07 0.12 0.15 0.22 0.21 0.36 0.67 1.08 1.56 1.19 0.52 0.23 0.23 0.28 0.50 0.62 0.30 0.06 0.06 0.14 0.14 0.14 0.24 0.37 0.59 0.60 0.58 0.34 0.30 0.52 0.66 0.09 0.00 0.00 0.00 0.00 0.01 0.02 0.01 0.01 0.00 0.01 0.01 0.02 0.02 0.02
0.04 0.02 0.03 0.08 0.23 0.24 0.08 0.04 0.09 0.20 0.35 0.45 0.66 0.94 1.19 1.31 1.46 0.97 0.76 0.46 0.59 0.71 0.56 0.25 0.08 0.06 0.04 0.14 0.14 0.19 0.17 0.27 0.38 0.42 0.23 0.22 0.35 0.31 0.10 0.00 0.00 0.00 0.00 0.00 0.00 0.02 0.02 0.02 0.02 0.03 0.04 0.05 0.05 0.05
0.04 0.04 0.02 0.04 0.14 0.20 0.16 0.15 0.36 0.58 0.87 0.90 0.80 0.87 1.26 1.07 0.87 0.70 1.03 1.10 1.16 1.20 0.58 0.13 0.03 0.03 0.03 0.07 0.16 0.19 0.26 0.29 0.26 0.09 0.08 0.20 0.10 0.00 0.00 0.00 0.00 0.00 0.00 0.00 0.01 0.02 0.03 0.06 0.05 0.07 0.08 0.07 0.07 0.07
0.06 0.05 0.05 0.08 0.14 0.23 0.26 0.34 0.51 0.73 0.68 0.39 0.43 0.71 1.23 0.85 0.82 0.85 1.04 0.92 0.80 0.55 0.34 0.18 0.05 0.04 0.03 0.07 0.09 0.09 0.16 0.16 0.16 0.06 0.11 0.08 0.00 0.00 0.00 0.00 0.00 0.00 0.00 0.00 0.00 0.01 0.01 0.05 0.04 0.06 0.10 0.13 0.14 0.15
0.09 0.09 0.10 0.14 0.21 0.29 0.35 0.38 0.33 0.25 0.17 0.05 0.07 0.36 0.37 0.20 0.50 0.44 0.38 0.19 0.10 0.09 0.07 0.12 0.13 0.05 0.08 0.08 0.18 0.26 0.17 0.12 0.08 0.05 0.10 0.04 0.00 0.00 0.00 0.00 0.00 0.00 0.00 0.00 0.00 0.00 0.02 0.07 0.06 0.08 0.11 0.13 0.13 0.14
0.09 0.09 0.10 0.11 0.14 0.18 0.16 0.10 0.03 0.01 0.01 0.01 0.01 0.07 0.07 0.04 0.10 0.11 0.07 0.03 0.03 0.02 0.05 0.11 0.20 0.17 0.19 0.16 0.22 0.17 0.12 0.10 0.06 0.07 0.03 0.00 0.01 0.00 0.00 0.00 0.00 0.00 0.00 0.00 0.02 0.02 0.06 0.10 0.10 0.13 0.20 0.24 0.20 0.09
0.15 0.13 0.11 0.13 0.08 0.05 0.05 0.03 0.00 0.00 0.01 0.03 0.00 0.00 0.02 0.01 0.02 0.04 0.04 0.05 0.03 0.01 0.04 0.06 0.11 0.15 0.16 0.13 0.17 0.10 0.07 0.09 0.12 0.07 0.01 0.02 0.01 0.00 0.00 0.00 0.00 0.00 0.02 0.05 0.07 0.04 0.03 0.03 0.05 0.09 0.14 0.13 0.09 0.02
0.02 0.04 0.04 0.08 0.10 0.07 0.02 0.00 0.00 0.00 0.01 0.01 0.00 0.02 0.03 0.04 0.03 0.01 0.02 0.02 0.04 0.04 0.06 0.09 0.13 0.13 0.11 0.17 0.11 0.10 0.11 0.07 0.03 0.00 0.07 0.03 0.00 0.00 0.00 0.00 0.02 0.04 0.05 0.04 0.02 0.01 0.01 0.00 0.00 0.01 0.01 0.01 0.00 0.00
0.00 0.00 0.00 0.01 0.01 0.01 0.00 0.00 0.00 0.00 0.00 0.00 0.00 0.02 0.03 0.02 0.05 0.04 0.03 0.07 0.05 0.04 0.04 0.07 0.08 0.08 0.05 0.06 0.06 0.03 0.02 0.00 0.02 0.04 0.02 0.00 0.00 0.00 0.01 0.03 0.09 0.06 0.01 0.04 0.01 0.00 0.00 0.00 0.00 0.00 0.00 0.00 0.00 0.00
0.00 0.00 0.00 0.00 0.00 0.00 0.00 0.00 0.00 0.00 0.00 0.00 0.01 0.01 0.02 0.01 0.03 0.03 0.03 0.05 0.03 0.04 0.05 0.05 0.03 0.03 0.04 0.04 0.01 0.01 0.01 0.03 0.05 0.00 0.00 0.00 0.00 0.00 0.01 0.06 0.14 0.15 0.01 0.00 0.00 0.00 0.00 0.00 0.00 0.00 0.00 0.00 0.00 0.00
0.00 0.00 0.00 0.00 0.00 0.00 0.00 0.00 0.00 0.00 0.00 0.01 0.01 0.02 0.01 0.02 0.03 0.04 0.04 0.04 0.10 0.10 0.05 0.03 0.03 0.03 0.01 0.01 0.02 0.03 0.03 0.03 0.00 0.00 0.00 0.00 0.00 0.01 0.02 0.02 0.02 0.01 0.00 0.00 0.00 0.00 0.00 0.00 0.00 0.00 0.00 0.00 0.00 0.00
0.00 0.00 0.00 0.00 0.00 0.00 0.00 0.00 0.00 0.00 0.00 0.00 0.00 0.01 0.01 0.01 0.01 0.00 0.03 0.04 0.08 0.03 0.07 0.05 0.01 0.01 0.01 0.01 0.02 0.05 0.05 0.02 0.00 0.01 0.01 0.01 0.01 0.01 0.01 0.00 0.00 0.00 0.00 0.00 0.00 0.00 0.00 0.00 0.00 0.00 0.00 0.00 0.00 0.00
0.00 0.00 0.00 0.00 0.00 0.00 0.00 0.00 0.00 0.00 0.00 0.00 0.00 0.00 0.00 0.00 0.00 0.01 0.04 0.08 0.13 0.10 0.08 0.06 0.01 0.01 0.02 0.02 0.01 0.02 0.02 0.00 0.00 0.00 0.02 0.02 0.01 0.00 0.00 0.00 0.00 0.00 0.00 0.00 0.00 0.00 0.00 0.00 0.00 0.00 0.00 0.00 0.00 0.00
0.00 0.00 0.00 0.00 0.00 0.00 0.00 0.00 0.00 0.00 0.00 0.00 0.01 0.03 0.05 0.02 0.02 0.02 0.03 0.05 0.13 0.08 0.02 0.00 0.01 0.02 0.01 0.00 0.00 0.00 0.00 0.00 0.00 0.00 0.01 0.03 0.02 0.01 0.00 0.01 0.00 0.00 0.00 0.00 0.00 0.00 0.00 0.00 0.00 0.00 0.00 0.00 0.00 0.01
0.00 0.00 0.00 0.00 0.00 0.00 0.00 0.00 0.00 0.00 0.00 0.00 0.03 0.03 0.06 0.04 0.03 0.04 0.04 0.06 0.05 0.01 0.00 0.01 0.01 0.01 0.00 0.00 0.00 0.00 0.00 0.00 0.00 0.00 0.00 0.00 0.01 0.01 0.00 0.00 0.00 0.00 0.00 0.00 0.00 0.00 0.00 0.00 0.00 0.00 0.00 0.01 0.02 0.05
0.00 0.00 0.00 0.00 0.00 0.00 0.00 0.00 0.00 0.00 0.00 0.00 0.02 0.01 0.01 0.02 0.05 0.04 0.05 0.02 0.00 0.00 0.00 0.00 0.01 0.01 0.00 0.00 0.00 0.00 0.00 0.00 0.00 0.00 0.00 0.00 0.00 0.00 0.00 0.00 0.00 0.00 0.01 0.00 0.00 0.00 0.00 0.00 0.00 0.01 0.02 0.02 0.06 0.06
0.00 0.00 0.00 0.00 0.00 0.00 0.00 0.00 0.00 0.00 0.00 0.01 0.01 0.01 0.01 0.02 0.01 0.02 0.01 0.00 0.01 0.00 0.00 0.00 0.00 0.00 0.00 0.00 0.00 0.00 0.00 0.00 0.00 0.00 0.00 0.00 0.00 0.01 0.00 0.00 0.00 0.00 0.00 0.00 0.00 0.00 0.00 0.01 0.02 0.02 0.01 0.02 0.06 0.04
0.02 0.00 0.00 0.00 0.00 0.00 0.00 0.00 0.00 0.00 0.01 0.00 0.00 0.00 0.01 0.01 0.01 0.01 0.00 0.00 0.00 0.00 0.00 0.00 0.00 0.00 0.00 0.00 0.00 0.00 0.00 0.00 0.00 0.00 0.00 0.00 0.00 0.00 0.01 0.00 0.00 0.00 0.00 0.00 0.00 0.00 0.00 0.01 0.02 0.01 0.02 0.02 0.01 0.02
0.01 0.00 0.00 0.00 0.00 0.00 0.00 0.00 0.00 0.00 0.00 0.00 0.00 0.01 0.01 0.01 0.01 0.00 0.00 0.00 0.00 0.00 0.00 0.00 0.00 0.00 0.00 0.00 0.00 0.00 0.00 0.00 0.00 0.00 0.00 0.00 0.00 0.00 0.00 0.00 0.01 0.02 0.00 0.00 0.00 0.00 0.00 0.01 0.03 0.01 0.01 0.01 0.01 0.01
0.01 0.00 0.00 0.00 0.00 0.00 0.00 0.00 0.00 0.00 0.00 0.00 0.00 0.01 0.00 0.00 0.00 0.00 0.00 0.00 0.00 0.00 0.00 0.00 0.00 0.00 0.00 0.00 0.00 0.00 0.00 0.00 0.00 0.00 0.00 0.00 0.00 0.00 0.00 0.00 0.00 0.01 0.00 0.00 0.00 0.00 0.00 0.01 0.03 0.02 0.01 0.02 0.01 0.01
0.01 0.00 0.00 0.00 0.00 0.00 0.00 0.00 0.00 0.00 0.00 0.00 0.00 0.00 0.00 0.00 0.00 0.00 0.00 0.00 0.00 0.00 0.00 0.00 0.00 0.00 0.00 0.00 0.00 0.00 0.00 0.00 0.00 0.00 0.00 0.00 0.00 0.00 0.00 0.00 0.00 0.00 0.00 0.00 0.00 0.00 0.00 0.01 0.03 0.02 0.02 0.01 0.02 0.01
0.01 0.00 0.00 0.01 0.00 0.00 0.00 0.00 0.00 0.00 0.00 0.00 0.00 0.00 0.00 0.00 0.00 0.00 0.00 0.00 0.00 0.00 0.00 0.00 0.01 0.00 0.00 0.00 0.00 0.00 0.00 0.00 0.00 0.00 0.00 0.00 0.01 0.01 0.00 0.00 0.00 0.00 0.00 0.01 0.00 0.00 0.01 0.01 0.02 0.01 0.01 0.01 0.02 0.02
0.01 0.00 0.01 0.01 0.00 0.00 0.00 0.00 0.01 0.00 0.00 0.00 0.00 0.00 0.00 0.00 0.00 0.00 0.00 0.00 0.00 0.00 0.01 0.01 0.01 0.00 0.00 0.00 0.01 0.01 0.01 0.01 0.00 0.00 0.00 0.00 0.00 0.01 0.00 0.00 0.00 0.00 0.00 0.00 0.01 0.02 0.02 0.02 0.01 0.01 0.01 0.01 0.01 0.02
0.03 0.02 0.02 0.02 0.01 0.01 0.02 0.00 0.00 0.00 0.00 0.00 0.00 0.00 0.00 0.01 0.00 0.00 0.00 0.00 0.01 0.01 0.01 0.01 0.01 0.01 0.00 0.01 0.01 0.01 0.01 0.01 0.00 0.00 0.00 0.00 0.00 0.00 0.00 0.00 0.00 0.00 0.00 0.00 0.01 0.01 0.01 0.03 0.02 0.01 0.02 0.01 0.01 0.01
0.04 0.05 0.04 0.03 0.06 0.04 0.01 0.01 0.00 0.00 0.00 0.00 0.00 0.00 0.01 0.00 0.00 0.01 0.01 0.01 0.02 0.02 0.02 0.01 0.00 0.01 0.01 0.01 0.01 0.00 0.00 0.00 0.00 0.00 0.00 0.00 0.00 0.00 0.00 0.00 0.00 0.00 0.00 0.00 0.00 0.00 0.00 0.02 0.02 0.01 0.01 0.01 0.01 0.00
0.09 0.08 0.10 0.11 0.09 0.05 0.02 0.02 0.02 0.02 0.01 0.01 0.01 0.01 0.01 0.01 0.01 0.01 0.02 0.02 0.03 0.03 0.02 0.01 0.02 0.02 0.01 0.00 0.00 0.00 0.00 0.00 0.00 0.00 0.00 0.00 0.00 0.00 0.00 0.00 0.00 0.00 0.00 0.01 0.01 0.00 0.00 0.01 0.01 0.01 0.01 0.00 0.01 0.01

GFSWCAN_prec_precacc24_237.txt.gz
Total_Precipitation_Accumulation
0.05 0.05 0.07 0.08 0.09 0.10 0.10 0.12 0.19 0.34 0.41 0.60 0.65 0.69 0.81 0.80 0.84 0.76 0.74 0.53 1.01 1.29 0.76 0.39 0.43 0.45 0.34 0.37 0.68 0.70 0.50 0.80 1.17 1.76 2.31 2.07 1.19 0.57 0.21 0.04 0.01 0.06 0.18 0.32 0.32 0.74 0.78 0.04 0.00 0.00 0.00 0.00 0.00 0.00
0.05 0.04 0.04 0.07 0.09 0.09 0.07 0.10 0.15 0.28 0.32 0.41 0.55 0.50 0.68 0.77 0.83 0.73 0.58 0.47 0.51 1.09 0.96 0.35 0.36 0.44 0.54 0.62 0.71 0.98 0.95 0.78 0.72 0.96 1.43 1.18 1.07 0.72 0.33 0.15 0.04 0.17 0.19 0.11 0.14 0.18 0.03 0.00 0.01 0.01 0.00 0.00 0.00 0.00
0.04 0.04 0.05 0.07 0.10 0.09 0.08 0.06 0.08 0.20 0.28 0.32 0.40 0.43 0.48 0.55 0.66 0.66 0.48 0.41 0.54 0.95 0.96 0.48 0.25 0.18 0.30 0.51 0.78 1.22 1.42 1.10 1.14 1.21 1.35 1.49 1.54 1.25 0.81 0.42 0.09 0.06 0.07 0.17 0.22 0.10 0.01 0.02 0.01 0.00 0.00 0.00 0.00 0.00
0.05 0.04 0.04 0.03 0.05 0.08 0.08 0.08 0.09 0.15 0.21 0.26 0.33 0.32 0.42 0.46 0.55 0.64 0.52 0.43 0.39 0.58 0.74 0.58 0.17 0.09 0.08 0.16 0.42 0.77 0.98 1.20 1.44 1.72 1.98 2.11 1.89 1.45 1.09 0.63 0.34 0.12 0.11 0.18 0.26 0.19 0.10 0.06 0.05 0.06 0.05 0.03 0.02 0.01
0.07 0.06 0.04 0.04 0.04 0.05 0.08 0.07 0.08 0.16 0.20 0.20 0.27 0.32 0.35 0.42 0.50 0.62 0.54 0.35 0.31 0.36 0.61 0.36 0.14 0.10 0.07 0.08 0.15 0.35 0.66 0.96 1.17 1.38 1.68 1.50 1.17 0.99 0.94 0.75 0.39 0.07 0.08 0.16 0.34 0.29 0.31 0.18 0.06 0.06 0.07 0.06 0.05 0.06
0.07 0.11 0.10 0.09 0.07 0.06 0.07 0.08 0.10 0.10 0.20 0.18 0.22 0.30 0.33 0.38 0.57 1.06 1.72 0.97 0.25 0.23 0.37 0.42 0.23 0.10 0.07 0.08 0.13 0.21 0.33 0.59 0.84 0.85 0.84 0.78 0.46 0.36 0.78 0.50 0.05 0.00 0.00 0.01 0.08 0.21 0.26 0.14 0.06 0.04 0.04 0.03 0.03 0.03
0.03 0.06 0.10 0.14 0.14 0.09 0.06 0.05 0.11 0.10 0.15 0.19 0.19 0.27 0.33 0.47 0.82 1.60 1.15 0.60 0.18 0.16 0.47 0.49 0.19 0.06 0.05 0.06 0.09 0.15 0.30 0.41 0.37 0.52 0.57 0.36 0.18 0.30 0.80 0.39 0.01 0.00 0.00 0.00 0.02 0.06 0.02 0.00 0.00 0.00 0.01 0.01 0.01 0.00
0.05 0.05 0.08 0.15 0.23 0.20 0.04 0.02 0.06 0.12 0.14 0.24 0.23 0.37 0.61 0.99 1.43 1.11 0.49 0.22 0.20 0.23 0.45 0.54 0.27 0.07 0.03 0.06 0.06 0.08 0.18 0.32 0.54 0.57 0.57 0.33 0.28 0.50 0.65 0.09 0.00 0.00 0.00 0.00 0.01 0.02 0.01 0.01 0.00 0.01 0.01 0.02 0.02 0.02
0.05 0.03 0.04 0.08 0.18 0.21 0.07 0.03 0.08 0.17 0.27 0.43 0.60 0.84 1.04 1.09 1.18 0.79 0.74 0.45 0.57 0.69 0.56 0.24 0.07 0.06 0.03 0.08 0.09 0.14 0.14 0.22 0.36 0.38 0.22 0.22 0.34 0.31 0.10 0.00 0.00 0.00 0.00 0.00 0.00 0.02 0.02 0.02 0.02 0.03 0.04 0.05 0.05 0.05
0.05 0.04 0.03 0.04 0.10 0.10 0.09 0.08 0.24 0.30 0.62 0.76 0.74 0.74 1.00 0.79 0.75 0.66 1.00 1.06 1.07 1.05 0.51 0.13 0.03 0.03 0.02 0.05 0.12 0.14 0.23 0.27 0.25 0.08 0.08 0.20 0.09 0.00 0.00 0.00 0.00 0.00 0.00 0.00 0.01 0.02 0.03 0.06 0.05 0.07 0.08 0.07 0.07 0.07
0.09 0.08 0.07 0.10 0.13 0.13 0.11 0.16 0.25 0.42 0.46 0.28 0.32 0.61 1.02 0.63 0.71 0.79 0.98 0.88 0.77 0.48 0.27 0.15 0.04 0.03 0.02 0.04 0.06 0.08 0.13 0.15 0.14 0.06 0.11 0.09 0.00 0.00 0.00 0.00 0.00 0.00 0.00 0.00 0.00 0.01 0.01 0.05 0.04 0.06 0.10 0.13 0.14 0.15
0.11 0.13 0.16 0.17 0.23 0.29 0.35 0.35 0.29 0.23 0.15 0.04 0.07 0.36 0.31 0.17 0.46 0.41 0.37 0.19 0.09 0.08 0.05 0.10 0.08 0.03 0.05 0.06 0.14 0.22 0.14 0.10 0.07 0.05 0.10 0.04 0.00 0.00 0.00 0.00 0.00 0.00 0.00 0.00 0.00 0.00 0.02 0.07 0.06 0.08 0.11 0.13 0.13 0.14
0.10 0.09 0.11 0.14 0.17 0.20 0.17 0.10 0.03 0.01 0.02 0.02 0.01 0.09 0.07 0.04 0.10 0.11 0.07 0.03 0.03 0.02 0.03 0.07 0.12 0.12 0.13 0.11 0.17 0.15 0.11 0.09 0.05 0.07 0.03 0.00 0.02 0.00 0.00 0.00 0.00 0.00 0.00 0.00 0.02 0.02 0.06 0.11 0.10 0.13 0.20 0.24 0.20 0.09
0.15 0.13 0.11 0.13 0.10 0.06 0.05 0.03 0.00 0.00 0.02 0.06 0.01 0.00 0.02 0.01 0.04 0.08 0.07 0.07 0.04 0.00 0.01 0.01 0.05 0.09 0.12 0.12 0.16 0.10 0.06 0.09 0.12 0.07 0.01 0.02 0.01 0.00 0.00 0.00 0.00 0.00 0.02 0.05 0.07 0.04 0.03 0.03 0.05 0.09 0.14 0.13 0.09 0.02
0.02 0.04 0.04 0.08 0.10 0.07 0.02 0.00 0.00 0.00 0.01 0.01 0.01 0.02 0.02 0.04 0.04 0.03 0.05 0.02 0.01 0.01 0.01 0.05 0.10 0.11 0.10 0.17 0.11 0.10 0.11 0.07 0.03 0.00 0.08 0.03 0.00 0.00 0.00 0.00 0.02 0.04 0.05 0.04 0.02 0.01 0.01 0.00 0.00 0.01 0.01 0.01 0.00 0.00
0.00 0.00 0.00 0.01 0.01 0.01 0.00 0.00 0.00 0.00 0.00 0.00 0.00 0.01 0.02 0.00 0.01 0.00 0.01 0.02 0.02 0.01 0.02 0.06 0.08 0.08 0.05 0.06 0.06 0.03 0.02 0.00 0.02 0.05 0.02 0.00 0.00 0.00 0.01 0.03 0.09 0.06 0.01 0.04 0.01 0.00 0.00 0.00 0.00 0.00 0.00 0.00 0.00 0.00
0.00 0.00 0.00 0.00 0.00 0.00 0.00 0.00 0.00 0.00 0.00 0.00 0.00 0.01 0.01 0.01 0.01 0.01 0.02 0.04 0.02 0.04 0.05 0.06 0.03 0.03 0.04 0.04 0.01 0.00 0.00 0.03 0.06 0.00 0.00 0.00 0.00 0.00 0.01 0.06 0.14 0.15 0.01 0.00 0.00 0.00 0.00 0.00 0.00 0.00 0.00 0.00 0.00 0.00
0.00 0.00 0.00 0.00 0.00 0.00 0.00 0.00 0.00 0.00 0.00 0.00 0.00 0.00 0.00 0.00 0.01 0.02 0.04 0.03 0.08 0.10 0.05 0.04 0.04 0.03 0.01 0.01 0.01 0.03 0.04 0.03 0.00 0.00 0.00 0.00 0.00 0.01 0.02 0.02 0.02 0.01 0.00 0.00 0.00 0.00 0.00 0.00 0.00 0.00 0.00 0.00 0.00 0.00
0.00 0.00 0.00 0.00 0.00 0.00 0.00 0.00 0.00 0.00 0.00 0.00 0.00 0.00 0.00 0.00 0.00 0.00 0.02 0.04 0.08 0.04 0.07 0.05 0.01 0.01 0.00 0.01 0.02 0.04 0.05 0.03 0.00 0.01 0.01 0.01 0.01 0.01 0.01 0.00 0.00 0.00 0.00 0.00 0.00 0.00 0.00 0.00 0.00 0.00 0.00 0.00 0.00 0.00
0.00 0.00 0.00 0.00 0.00 0.00 0.00 0.00 0.00 0.00 0.00 0.00 0.00 0.00 0.00 0.00 0.00 0.01 0.04 0.08 0.13 0.11 0.09 0.06 0.01 0.01 0.02 0.02 0.01 0.02 0.02 0.00 0.00 0.00 0.01 0.02 0.01 0.00 0.00 0.00 0.00 0.00 0.00 0.00 0.00 0.00 0.00 0.00 0.00 0.00 0.00 0.00 0.00 0.00
0.00 0.00 0.00 0.00 0.00 0.00 0.00 0.00 0.00 0.00 0.00 0.00 0.01 0.03 0.05 0.02 0.02 0.02 0.03 0.05 0.15 0.09 0.02 0.00 0.01 0.02 0.01 0.00 0.00 0.00 0.00 0.00 0.00 0.00 0.00 0.01 0.01 0.01 0.00 0.01 0.00 0.00 0.00 0.00 0.00 0.00 0.00 0.00 0.00 0.00 0.00 0.00 0.00 0.01
0.00 0.00 0.00 0.00 0.00 0.00 0.00 0.00 0.00 0.00 0.00 0.00 0.03 0.03 0.06 0.05 0.03 0.03 0.04 0.07 0.05 0.01 0.00 0.01 0.01 0.01 0.00 0.00 0.00 0.00 0.00 0.00 0.00 0.00 0.00 0.00 0.00 0.01 0.00 0.00 0.00 0.00 0.00 0.00 0.00 0.00 0.00 0.00 0.00 0.00 0.00 0.01 0.01 0.03
0.00 0.00 0.00 0.00 0.00 0.00 0.00 0.00 0.00 0.00 0.00 0.00 0.02 0.01 0.01 0.03 0.05 0.05 0.06 0.02 0.00 0.00 0.00 0.00 0.01 0.02 0.00 0.00 0.00 0.00 0.00 0.00 0.00 0.00 0.00 0.00 0.00 0.00 0.00 0.00 0.00 0.00 0.01 0.00 0.00 0.00 0.00 0.00 0.00 0.00 0.00 0.01 0.03 0.05
0.00 0.00 0.00 0.00 0.00 0.00 0.00 0.00 0.00 0.00 0.00 0.01 0.02 0.01 0.00 0.01 0.02 0.03 0.01 0.00 0.00 0.00 0.00 0.00 0.01 0.01 0.00 0.00 0.00 0.00 0.00 0.00 0.00 0.00 0.00 0.00 0.00 0.01 0.00 0.00 0.00 0.00 0.00 0.00 0.00 0.00 0.00 0.00 0.00 0.00 0.00 0.01 0.04 0.03
0.02 0.00 0.00 0.00 0.00 0.01 0.00 0.00 0.00 0.00 0.01 0.00 0.00 0.01 0.01 0.01 0.02 0.01 0.00 0.00 0.00 0.00 0.00 0.00 0.01 0.01 0.00 0.00 0.00 0.00 0.00 0.00 0.00 0.00 0.00 0.00 0.00 0.00 0.01 0.01 0.00 0.00 0.00 0.00 0.00 0.00 0.00 0.01 0.01 0.01 0.01 0.01 0.01 0.01
0.02 0.00 0.00 0.00 0.00 0.00 0.00 0.00 0.00 0.00 0.00 0.00 0.00 0.01 0.01 0.01 0.01 0.00 0.00 0.00 0.00 0.01 0.01 0.00 0.00 0.00 0.00 0.00 0.00 0.00 0.00 0.00 0.00 0.00 0.00 0.00 0.00 0.00 0.00 0.01 0.01 0.01 0.00 0.00 0.00 0.00 0.00 0.01 0.01 0.00 0.01 0.00 0.00 0.01
0.01 0.00 0.00 0.00 0.00 0.00 0.00 0.00 0.00 0.00 0.01 0.00 0.01 0.01 0.00 0.00 0.00 0.00 0.00 0.00 0.00 0.00 0.00 0.00 0.00 0.00 0.00 0.00 0.00 0.00 0.00 0.00 0.00 0.00 0.00 0.00 0.00 0.00 0.00 0.00 0.00 0.00 0.00 0.00 0.00 0.00 0.00 0.00 0.02 0.01 0.01 0.01 0.01 0.01
0.01 0.00 0.00 0.00 0.00 0.00 0.00 0.00 0.01 0.00 0.00 0.00 0.01 0.01 0.00 0.00 0.00 0.00 0.00 0.00 0.00 0.00 0.00 0.00 0.00 0.00 0.00 0.00 0.00 0.00 0.00 0.00 0.00 0.00 0.00 0.01 0.01 0.01 0.00 0.00 0.00 0.00 0.00 0.00 0.00 0.00 0.00 0.00 0.01 0.01 0.01 0.01 0.01 0.01
0.02 0.01 0.00 0.01 0.00 0.00 0.00 0.00 0.00 0.00 0.00 0.00 0.00 0.00 0.00 0.00 0.00 0.00 0.00 0.00 0.00 0.00 0.00 0.00 0.01 0.00 0.00 0.00 0.00 0.00 0.00 0.00 0.00 0.00 0.00 0.01 0.01 0.02 0.00 0.00 0.00 0.00 0.00 0.00 0.00 0.00 0.01 0.01 0.01 0.01 0.01 0.01 0.01 0.02
0.02 0.01 0.02 0.01 0.00 0.00 0.00 0.00 0.01 0.00 0.00 0.00 0.00 0.00 0.00 0.00 0.00 0.00 0.00 0.00 0.00 0.00 0.01 0.01 0.01 0.00 0.00 0.00 0.01 0.02 0.02 0.01 0.00 0.00 0.00 0.00 0.00 0.00 0.00 0.00 0.00 0.00 0.00 0.00 0.00 0.01 0.02 0.02 0.01 0.01 0.01 0.01 0.01 0.01
0.04 0.03 0.03 0.03 0.02 0.01 0.02 0.00 0.00 0.00 0.00 0.00 0.00 0.00 0.00 0.00 0.00 0.00 0.00 0.00 0.00 0.01 0.01 0.01 0.01 0.01 0.00 0.01 0.01 0.01 0.02 0.02 0.00 0.00 0.00 0.00 0.00 0.00 0.00 0.00 0.00 0.00 0.00 0.00 0.00 0.00 0.01 0.02 0.01 0.01 0.01 0.01 0.01 0.00
0.04 0.06 0.05 0.04 0.06 0.03 0.00 0.01 0.00 0.00 0.00 0.00 0.00 0.00 0.01 0.00 0.00 0.00 0.01 0.01 0.01 0.01 0.01 0.01 0.01 0.01 0.00 0.00 0.00 0.00 0.00 0.00 0.00 0.00 0.00 0.00 0.00 0.00 0.00 0.00 0.00 0.00 0.00 0.00 0.00 0.00 0.00 0.01 0.01 0.01 0.01 0.01 0.00 0.00
0.09 0.08 0.10 0.11 0.11 0.07 0.02 0.02 0.03 0.03 0.02 0.01 0.02 0.01 0.00 0.01 0.01 0.01 0.02 0.02 0.03 0.02 0.01 0.00 0.01 0.00 0.00 0.01 0.01 0.00 0.00 0.00 0.00 0.00 0.00 0.00 0.00 0.00 0.00 0.00 0.00 0.00 0.00 0.00 0.00 0.00 0.00 0.01 0.01 0.00 0.00 0.00 0.01 0.01

GFSWCAN_prec_precacc24_243.txt.gz
Total_Precipitation_Accumulation
0.08 0.10 0.10 0.10 0.09 0.07 0.05 0.09 0.21 0.47 0.64 0.86 0.94 0.98 1.02 0.85 0.83 0.94 1.11 0.62 0.82 1.02 0.75 0.38 0.36 0.37 0.30 0.30 0.49 0.51 0.41 0.65 0.80 1.27 1.71 1.58 0.87 0.38 0.10 0.01 0.01 0.05 0.08 0.12 0.16 0.39 0.52 0.04 0.00 0.00 0.00 0.00 0.00 0.00
0.10 0.08 0.09 0.09 0.08 0.05 0.04 0.06 0.17 0.41 0.57 0.72 0.96 0.93 1.00 0.87 0.88 0.83 0.93 0.66 0.59 0.95 0.97 0.50 0.38 0.42 0.45 0.51 0.57 0.78 0.79 0.68 0.67 0.84 1.12 0.87 0.69 0.41 0.17 0.06 0.02 0.15 0.16 0.06 0.05 0.11 0.03 0.00 0.01 0.02 0.00 0.00 0.00 0.00
0.06 0.08 0.09 0.07 0.06 0.04 0.02 0.02 0.07 0.37 0.56 0.62 0.97 1.05 0.79 0.73 0.74 0.75 0.81 0.62 0.78 1.12 0.94 0.71 0.44 0.22 0.29 0.43 0.62 0.96 1.19 1.00 1.03 1.08 1.20 1.27 1.20 0.89 0.52 0.27 0.07 0.05 0.08 0.16 0.18 0.08 0.01 0.01 0.01 0.01 0.01 0.01 0.01 0.01
0.06 0.07 0.06 0.05 0.03 0.02 0.01 0.00 0.05 0.41 0.46 0.64 1.03 1.22 0.85 0.70 0.66 0.67 0.78 0.68 0.57 0.82 0.87 0.88 0.56 0.28 0.14 0.17 0.34 0.59 0.78 1.00 1.20 1.40 1.64 1.85 1.65 1.24 0.94 0.57 0.31 0.13 0.13 0.19 0.27 0.20 0.12 0.08 0.09 0.15 0.15 0.10 0.08 0.06
0.06 0.06 0.05 0.05 0.03 0.02 0.02 0.02 0.16 0.30 0.35 0.63 0.96 1.06 0.72 0.57 0.65 0.70 0.74 0.67 0.52 0.46 0.71 0.71 0.57 0.45 0.18 0.14 0.21 0.33 0.56 0.77 0.91 1.19 1.69 1.67 1.22 0.95 0.87 0.66 0.35 0.09 0.18 0.30 0.45 0.38 0.40 0.28 0.16 0.16 0.15 0.11 0.09 0.08
0.05 0.07 0.05 0.05 0.04 0.02 0.03 0.03 0.13 0.15 0.33 0.52 0.71 0.89 0.65 0.57 0.71 1.09 1.66 1.24 0.59 0.38 0.43 0.54 0.57 0.47 0.31 0.18 0.24 0.33 0.43 0.64 0.77 0.92 1.02 0.88 0.60 0.47 0.73 0.43 0.05 0.02 0.05 0.08 0.16 0.29 0.34 0.20 0.12 0.10 0.09 0.06 0.05 0.05
0.05 0.09 0.08 0.08 0.06 0.04 0.03 0.03 0.07 0.10 0.29 0.42 0.55 0.72 0.59 0.56 0.72 1.33 1.19 0.94 0.62 0.45 0.54 0.46 0.37 0.35 0.38 0.24 0.24 0.35 0.50 0.59 0.58 0.70 0.66 0.42 0.27 0.37 0.74 0.36 0.01 0.00 0.00 0.00 0.02 0.06 0.01 0.00 0.00 0.00 0.00 0.00 0.00 0.00
0.06 0.07 0.08 0.11 0.11 0.11 0.03 0.02 0.06 0.11 0.18 0.32 0.45 0.67 0.75 0.89 1.12 1.09 0.62 0.32 0.31 0.45 0.57 0.44 0.38 0.31 0.22 0.20 0.22 0.21 0.34 0.52 0.62 0.59 0.56 0.35 0.30 0.41 0.52 0.07 0.00 0.00 0.00 0.00 0.00 0.01 0.00 0.00 0.00 0.00 0.00 0.02 0.02 0.02
0.07 0.04 0.04 0.06 0.11 0.12 0.04 0.04 0.09 0.17 0.23 0.35 0.48 0.76 0.88 0.90 0.99 0.77 0.61 0.37 0.26 0.34 0.37 0.20 0.13 0.18 0.12 0.14 0.15 0.15 0.14 0.25 0.38 0.38 0.23 0.23 0.30 0.25 0.07 0.00 0.00 0.00 0.00 0.00 0.00 0.00 0.00 0.00 0.01 0.02 0.03 0.04 0.05 0.05
0.06 0.05 0.04 0.04 0.05 0.07 0.06 0.07 0.22 0.27 0.46 0.42 0.45 0.54 0.89 0.81 0.53 0.39 0.70 0.75 0.67 0.49 0.21 0.09 0.05 0.06 0.04 0.06 0.10 0.12 0.17 0.24 0.23 0.09 0.10 0.17 0.09 0.01 0.00 0.00 0.00 0.00 0.00 0.00 0.00 0.01 0.03 0.06 0.04 0.07 0.08 0.07 0.07 0.07
0.16 0.09 0.08 0.09 0.08 0.08 0.09 0.12 0.16 0.22 0.18 0.12 0.21 0.52 0.79 0.43 0.35 0.48 0.64 0.61 0.52 0.31 0.20 0.16 0.05 0.05 0.02 0.04 0.05 0.07 0.11 0.12 0.09 0.04 0.09 0.06 0.01 0.00 0.00 0.00 0.00 0.00 0.00 0.00 0.00 0.01 0.01 0.05 0.04 0.06 0.10 0.13 0.15 0.16
0.11 0.13 0.13 0.15 0.17 0.19 0.18 0.16 0.10 0.11 0.09 0.03 0.06 0.28 0.21 0.11 0.23 0.29 0.25 0.16 0.10 0.10 0.07 0.12 0.10 0.04 0.05 0.06 0.13 0.18 0.12 0.06 0.04 0.04 0.04 0.01 0.00 0.00 0.00 0.00 0.00 0.00 0.00 0.00 0.00 0.00 0.02 0.07 0.06 0.08 0.11 0.13 0.13 0.14
0.05 0.06 0.05 0.07 0.11 0.12 0.09 0.07 0.03 0.01 0.02 0.02 0.01 0.07 0.06 0.03 0.05 0.08 0.06 0.03 0.04 0.02 0.02 0.06 0.11 0.12 0.11 0.09 0.11 0.10 0.07 0.06 0.04 0.04 0.02 0.00 0.02 0.00 0.00 0.00 0.00 0.00 0.00 0.00 0.02 0.02 0.06 0.11 0.10 0.13 0.21 0.25 0.20 0.09
0.12 0.06 0.05 0.05 0.05 0.02 0.01 0.01 0.00 0.00 0.03 0.06 0.01 0.00 0.02 0.01 0.05 0.09 0.07 0.07 0.04 0.00 0.01 0.01 0.03 0.05 0.06 0.08 0.10 0.08 0.05 0.05 0.04 0.03 0.00 0.02 0.01 0.00 0.00 0.00 0.00 0.00 0.02 0.05 0.07 0.04 0.03 0.03 0.05 0.09 0.14 0.13 0.09 0.02
0.02 0.03 0.02 0.03 0.01 0.00 0.00 0.00 0.00 0.00 0.00 0.01 0.01 0.02 0.04 0.07 0.05 0.04 0.07 0.05 0.02 0.02 0.01 0.01 0.03 0.04 0.05 0.10 0.05 0.05 0.04 0.03 0.01 0.00 0.08 0.03 0.00 0.00 0.00 0.00 0.02 0.04 0.05 0.04 0.02 0.01 0.01 0.00 0.00 0.02 0.01 0.01 0.00 0.00
0.00 0.00 0.00 0.01 0.01 0.00 0.00 0.00 0.00 0.00 0.00 0.00 0.00 0.01 0.02 0.00 0.00 0.00 0.01 0.03 0.04 0.03 0.02 0.05 0.04 0.05 0.04 0.06 0.04 0.02 0.02 0.00 0.02 0.05 0.02 0.00 0.00 0.00 0.01 0.03 0.09 0.06 0.01 0.04 0.01 0.00 0.00 0.00 0.00 0.00 0.00 0.00 0.00 0.00
0.00 0.00 0.00 0.00 0.00 0.00 0.00 0.00 0.00 0.00 0.00 0.00 0.00 0.01 0.01 0.01 0.00 0.00 0.00 0.00 0.00 0.02 0.03 0.05 0.02 0.03 0.04 0.04 0.01 0.00 0.00 0.03 0.06 0.00 0.00 0.00 0.00 0.00 0.01 0.06 0.14 0.15 0.01 0.00 0.00 0.00 0.00 0.00 0.00 0.00 0.00 0.00 0.00 0.00
0.00 0.00 0.00 0.00 0.00 0.00 0.00 0.00 0.00 0.00 0.00 0.00 0.00 0.00 0.00 0.00 0.00 0.01 0.01 0.01 0.03 0.05 0.03 0.03 0.04 0.03 0.01 0.01 0.01 0.03 0.04 0.03 0.00 0.00 0.00 0.00 0.00 0.01 0.02 0.02 0.02 0.01 0.00 0.00 0.00 0.00 0.00 0.00 0.00 0.00 0.00 0.00 0.00 0.00
0.00 0.00 0.00 0.00 0.00 0.00 0.00 0.00 0.00 0.00 0.00 0.00 0.00 0.00 0.00 0.00 0.00 0.00 0.01 0.02 0.07 0.03 0.07 0.05 0.01 0.01 0.00 0.01 0.02 0.04 0.05 0.03 0.00 0.01 0.01 0.01 0.01 0.01 0.01 0.00 0.00 0.00 0.00 0.00 0.00 0.00 0.00 0.00 0.00 0.00 0.00 0.00 0.00 0.00
0.00 0.00 0.00 0.00 0.00 0.00 0.00 0.00 0.00 0.00 0.00 0.00 0.00 0.00 0.00 0.00 0.00 0.01 0.04 0.08 0.13 0.11 0.09 0.06 0.01 0.01 0.02 0.02 0.01 0.02 0.02 0.00 0.00 0.00 0.01 0.02 0.01 0.00 0.00 0.00 0.00 0.00 0.00 0.00 0.00 0.00 0.00 0.00 0.00 0.00 0.00 0.00 0.00 0.00
0.00 0.00 0.00 0.00 0.00 0.00 0.00 0.00 0.00 0.00 0.00 0.00 0.01 0.03 0.05 0.02 0.02 0.02 0.03 0.05 0.15 0.09 0.02 0.00 0.01 0.02 0.01 0.00 0.00 0.00 0.00 0.00 0.00 0.00 0.00 0.01 0.01 0.01 0.01 0.01 0.00 0.00 0.00 0.00 0.00 0.00 0.00 0.00 0.00 0.00 0.00 0.00 0.00 0.01
0.00 0.00 0.00 0.00 0.00 0.00 0.00 0.00 0.00 0.00 0.00 0.00 0.03 0.03 0.06 0.05 0.03 0.03 0.04 0.07 0.05 0.01 0.00 0.01 0.01 0.01 0.00 0.00 0.00 0.00 0.00 0.00 0.00 0.00 0.00 0.00 0.00 0.00 0.00 0.00 0.00 0.00 0.00 0.00 0.00 0.00 0.00 0.00 0.00 0.00 0.00 0.01 0.01 0.01
0.00 0.00 0.00 0.00 0.00 0.00 0.00 0.00 0.00 0.00 0.00 0.00 0.02 0.01 0.01 0.03 0.05 0.05 0.06 0.02 0.00 0.00 0.00 0.00 0.01 0.02 0.00 0.00 0.00 0.00 0.00 0.00 0.00 0.00 0.00 0.00 0.00 0.00 0.00 0.00 0.00 0.00 0.01 0.01 0.00 0.00 0.00 0.00 0.00 0.00 0.00 0.01 0.02 0.03
0.00 0.00 0.00 0.00 0.00 0.00 0.00 0.00 0.00 0.00 0.00 0.01 0.02 0.01 0.00 0.01 0.02 0.04 0.02 0.00 0.00 0.00 0.00 0.00 0.01 0.01 0.00 0.00 0.00 0.00 0.00 0.00 0.00 0.00 0.00 0.00 0.00 0.01 0.00 0.00 0.00 0.00 0.00 0.00 0.00 0.00 0.00 0.00 0.00 0.00 0.00 0.01 0.02 0.02
0.02 0.00 0.00 0.00 0.00 0.01 0.00 0.00 0.00 0.00 0.01 0.00 0.00 0.01 0.01 0.01 0.02 0.01 0.00 0.00 0.00 0.00 0.00 0.00 0.01 0.01 0.00 0.00 0.00 0.00 0.00 0.00 0.00 0.00 0.00 0.00 0.00 0.00 0.01 0.01 0.00 0.00 0.00 0.00 0.00 0.00 0.00 0.01 0.01 0.01 0.01 0.01 0.00 0.01
0.02 0.00 0.00 0.00 0.00 0.00 0.00 0.00 0.00 0.00 0.00 0.00 0.00 0.01 0.01 0.01 0.01 0.00 0.00 0.00 0.00 0.01 0.01 0.00 0.00 0.00 0.00 0.00 0.00 0.00 0.00 0.00 0.00 0.00 0.00 0.00 0.00 0.00 0.00 0.01 0.02 0.02 0.00 0.00 0.00 0.00 0.00 0.01 0.01 0.00 0.00 0.00 0.00 0.00
0.02 0.00 0.00 0.00 0.00 0.00 0.00 0.00 0.00 0.00 0.01 0.00 0.01 0.01 0.00 0.00 0.00 0.00 0.00 0.00 0.00 0.00 0.00 0.00 0.00 0.00 0.00 0.00 0.00 0.00 0.00 0.00 0.00 0.00 0.00 0.00 0.00 0.00 0.00 0.00 0.00 0.00 0.00 0.00 0.00 0.00 0.00 0.00 0.01 0.01 0.01 0.01 0.01 0.01
0.01 0.00 0.00 0.00 0.00 0.00 0.00 0.00 0.01 0.00 0.00 0.00 0.01 0.01 0.00 0.00 0.00 0.00 0.00 0.00 0.00 0.00 0.00 0.00 0.00 0.00 0.00 0.00 0.00 0.00 0.00 0.00 0.00 0.00 0.00 0.01 0.01 0.01 0.00 0.00 0.00 0.00 0.00 0.00 0.00 0.00 0.00 0.00 0.01 0.01 0.01 0.00 0.01 0.01
0.02 0.01 0.00 0.01 0.00 0.00 0.00 0.00 0.00 0.00 0.00 0.00 0.00 0.00 0.00 0.00 0.00 0.00 0.00 0.00 0.00 0.00 0.00 0.00 0.01 0.00 0.00 0.00 0.00 0.00 0.00 0.00 0.00 0.01 0.01 0.03 0.03 0.04 0.01 0.00 0.00 0.00 0.00 0.00 0.00 0.00 0.00 0.00 0.01 0.01 0.01 0.01 0.01 0.01
0.02 0.01 0.02 0.01 0.00 0.00 0.00 0.00 0.01 0.00 0.00 0.00 0.00 0.00 0.00 0.00 0.00 0.00 0.00 0.00 0.00 0.00 0.01 0.01 0.01 0.00 0.01 0.01 0.02 0.03 0.03 0.01 0.00 0.00 0.00 0.00 0.00 0.01 0.01 0.00 0.00 0.00 0.00 0.00 0.00 0.01 0.01 0.01 0.01 0.01 0.01 0.01 0.01 0.01
0.04 0.03 0.03 0.03 0.02 0.01 0.02 0.00 0.00 0.00 0.00 0.00 0.00 0.00 0.00 0.00 0.00 0.00 0.00 0.00 0.00 0.00 0.01 0.01 0.01 0.01 0.01 0.01 0.02 0.03 0.05 0.04 0.01 0.00 0.00 0.00 0.00 0.00 0.00 0.00 0.00 0.00 0.00 0.00 0.00 0.00 0.01 0.01 0.01 0.01 0.01 0.01 0.01 0.00
0.05 0.05 0.05 0.04 0.06 0.03 0.00 0.00 0.00 0.00 0.00 0.00 0.00 0.00 0.01 0.00 0.00 0.01 0.01 0.01 0.01 0.01 0.01 0.01 0.00 0.01 0.00 0.01 0.02 0.03 0.01 0.01 0.00 0.01 0.00 0.00 0.00 0.00 0.00 0.00 0.00 0.00 0.00 0.00 0.00 0.00 0.00 0.00 0.00 0.00 0.00 0.00 0.00 0.00
0.08 0.07 0.08 0.10 0.13 0.09 0.02 0.01 0.02 0.02 0.02 0.01 0.02 0.01 0.00 0.01 0.01 0.02 0.02 0.02 0.02 0.01 0.00 0.00 0.00 0.00 0.00 0.01 0.01 0.02 0.03 0.02 0.01 0.00 0.00 0.00 0.00 0.00 0.00 0.00 0.00 0.00 0.00 0.00 0.00 0.00 0.00 0.00 0.00 0.00 0.00 0.00 0.00 0.00

GFSWCAN_prec_precacc24_249.txt.gz
Total_Precipitation_Accumulation
0.10 0.13 0.15 0.15 0.13 0.10 0.08 0.11 0.23 0.49 0.67 0.90 0.98 1.02 1.07 0.88 0.83 1.10 1.52 0.88 0.83 0.96 0.63 0.27 0.21 0.21 0.19 0.21 0.33 0.28 0.30 0.50 0.71 1.25 1.55 1.19 0.59 0.19 0.03 0.00 0.01 0.04 0.04 0.06 0.08 0.19 0.19 0.01 0.00 0.00 0.00 0.00 0.00 0.00
0.14 0.12 0.13 0.13 0.13 0.10 0.07 0.06 0.16 0.43 0.60 0.76 1.01 0.98 1.04 0.91 0.88 0.89 1.19 1.00 0.91 0.98 0.93 0.46 0.30 0.30 0.31 0.36 0.41 0.48 0.63 0.53 0.74 0.92 0.94 0.68 0.45 0.21 0.07 0.02 0.02 0.15 0.16 0.05 0.03 0.07 0.02 0.00 0.01 0.02 0.00 0.00 0.00 0.00
0.12 0.14 0.15 0.10 0.08 0.05 0.04 0.03 0.07 0.34 0.54 0.62 0.98 1.10 0.87 0.81 0.77 0.79 0.99 0.71 1.00 1.52 1.19 0.74 0.45 0.22 0.23 0.27 0.39 0.72 0.96 0.89 0.90 1.00 1.07 1.09 0.98 0.59 0.29 0.13 0.04 0.05 0.08 0.16 0.16 0.07 0.01 0.01 0.01 0.01 0.01 0.01 0.01 0.01
0.12 0.11 0.09 0.06 0.03 0.02 0.01 0.00 0.04 0.40 0.43 0.63 1.08 1.32 0.99 0.83 0.78 0.77 1.05 0.87 0.70 1.11 1.15 0.95 0.56 0.29 0.15 0.15 0.19 0.37 0.53 0.76 1.14 1.27 1.46 1.55 1.29 0.92 0.68 0.43 0.24 0.11 0.13 0.19 0.26 0.20 0.12 0.08 0.09 0.15 0.13 0.09 0.08 0.06
0.11 0.10 0.07 0.07 0.03 0.01 0.01 0.04 0.21 0.34 0.38 0.70 1.08 1.24 0.93 0.74 0.78 0.86 1.10 1.04 0.61 0.62 0.86 0.72 0.58 0.47 0.19 0.15 0.20 0.23 0.35 0.55 0.81 1.32 1.53 1.37 0.86 0.60 0.51 0.38 0.21 0.08 0.18 0.30 0.45 0.37 0.39 0.27 0.16 0.15 0.13 0.10 0.09 0.08
0.08 0.11 0.09 0.06 0.03 0.02 0.04 0.07 0.21 0.23 0.44 0.75 1.03 1.05 0.65 0.60 0.90 1.31 1.85 1.61 0.79 0.40 0.54 0.63 0.67 0.59 0.36 0.18 0.24 0.34 0.36 0.47 0.72 1.07 1.26 0.78 0.44 0.34 0.50 0.24 0.02 0.02 0.05 0.08 0.15 0.27 0.32 0.20 0.12 0.10 0.09 0.06 0.05 0.05
0.07 0.11 0.10 0.07 0.06 0.06 0.07 0.05 0.14 0.25 0.45 0.68 0.80 0.92 0.65 0.59 1.12 1.43 0.98 1.00 0.72 0.55 0.74 0.72 0.60 0.52 0.48 0.29 0.29 0.44 0.51 0.54 0.66 0.86 0.93 0.66 0.27 0.27 0.47 0.20 0.01 0.00 0.00 0.01 0.03 0.06 0.02 0.01 0.00 0.00 0.00 0.00 0.00 0.00
0.06 0.06 0.06 0.07 0.06 0.05 0.02 0.01 0.05 0.16 0.31 0.50 0.68 1.00 1.12 1.06 1.28 0.89 0.42 0.29 0.32 0.57 0.79 0.72 0.62 0.78 0.57 0.45 0.46 0.42 0.53 0.65 0.70 0.57 0.48 0.46 0.39 0.31 0.31 0.05 0.00 0.00 0.00 0.00 0.00 0.01 0.00 0.01 0.02 0.01 0.02 0.02 0.01 0.00
0.05 0.03 0.03 0.03 0.03 0.02 0.01 0.02 0.03 0.07 0.16 0.28 0.40 0.56 0.65 0.74 0.98 0.88 0.53 0.33 0.30 0.47 0.61 0.44 0.39 0.49 0.48 0.48 0.42 0.40 0.35 0.48 0.58 0.52 0.35 0.24 0.30 0.22 0.05 0.00 0.00 0.00 0.01 0.02 0.01 0.01 0.00 0.00 0.00 0.00 0.00 0.00 0.00 0.00
0.04 0.03 0.03 0.03 0.02 0.03 0.04 0.03 0.06 0.07 0.12 0.14 0.19 0.36 0.76 0.84 0.68 0.51 0.62 0.63 0.72 0.59 0.40 0.31 0.22 0.38 0.38 0.41 0.32 0.39 0.33 0.35 0.32 0.27 0.28 0.25 0.14 0.04 0.01 0.00 0.00 0.00 0.00 0.00 0.01 0.01 0.01 0.00 0.00 0.00 0.00 0.00 0.01 0.02
0.14 0.07 0.06 0.08 0.06 0.07 0.06 0.06 0.08 0.14 0.13 0.09 0.14 0.43 0.70 0.40 0.30 0.37 0.61 0.60 0.56 0.38 0.24 0.31 0.28 0.27 0.24 0.35 0.28 0.21 0.27 0.30 0.19 0.15 0.15 0.13 0.07 0.05 0.02 0.01 0.01 0.00 0.00 0.00 0.01 0.00 0.00 0.00 0.00 0.00 0.02 0.05 0.08 0.10
0.06 0.10 0.11 0.12 0.16 0.18 0.18 0.16 0.10 0.11 0.06 0.03 0.05 0.19 0.16 0.12 0.17 0.21 0.22 0.16 0.13 0.14 0.10 0.13 0.25 0.23 0.23 0.26 0.40 0.41 0.27 0.21 0.20 0.11 0.07 0.05 0.02 0.01 0.01 0.02 0.02 0.03 0.01 0.00 0.00 0.00 0.00 0.00 0.01 0.03 0.07 0.09 0.11 0.12
0.01 0.02 0.03 0.06 0.11 0.12 0.08 0.07 0.03 0.01 0.02 0.02 0.01 0.06 0.04 0.03 0.04 0.09 0.08 0.05 0.10 0.06 0.04 0.06 0.11 0.11 0.12 0.09 0.16 0.24 0.23 0.18 0.16 0.13 0.07 0.01 0.02 0.01 0.02 0.03 0.03 0.02 0.00 0.00 0.00 0.00 0.01 0.04 0.06 0.10 0.16 0.22 0.19 0.09
0.02 0.00 0.00 0.01 0.03 0.02 0.01 0.01 0.00 0.00 0.03 0.06 0.01 0.00 0.03 0.03 0.08 0.14 0.11 0.11 0.08 0.04 0.05 0.03 0.04 0.04 0.05 0.06 0.07 0.06 0.06 0.06 0.04 0.03 0.02 0.03 0.01 0.01 0.02 0.01 0.00 0.00 0.00 0.00 0.02 0.02 0.03 0.03 0.05 0.09 0.14 0.13 0.09 0.02
0.01 0.01 0.00 0.00 0.00 0.00 0.00 0.00 0.00 0.00 0.00 0.01 0.01 0.02 0.07 0.11 0.07 0.06 0.11 0.10 0.08 0.03 0.01 0.01 0.02 0.04 0.04 0.07 0.03 0.05 0.03 0.02 0.01 0.00 0.08 0.03 0.00 0.00 0.00 0.00 0.01 0.01 0.02 0.01 0.01 0.01 0.01 0.00 0.00 0.02 0.01 0.01 0.00 0.00
0.00 0.00 0.00 0.00 0.00 0.00 0.00 0.00 0.00 0.00 0.00 0.00 0.00 0.01 0.02 0.00 0.00 0.00 0.02 0.04 0.05 0.03 0.01 0.04 0.02 0.04 0.03 0.04 0.02 0.01 0.01 0.00 0.02 0.05 0.02 0.00 0.00 0.00 0.01 0.02 0.04 0.04 0.01 0.01 0.01 0.00 0.00 0.00 0.00 0.00 0.00 0.00 0.00 0.00
0.00 0.00 0.00 0.00 0.00 0.00 0.00 0.00 0.00 0.00 0.00 0.00 0.00 0.01 0.01 0.01 0.00 0.00 0.00 0.00 0.00 0.02 0.02 0.03 0.01 0.02 0.04 0.04 0.01 0.00 0.00 0.03 0.06 0.00 0.00 0.00 0.00 0.00 0.01 0.05 0.12 0.13 0.01 0.00 0.00 0.00 0.00 0.00 0.00 0.00 0.00 0.00 0.00 0.00
0.00 0.00 0.00 0.00 0.00 0.00 0.00 0.00 0.00 0.00 0.00 0.00 0.00 0.00 0.00 0.00 0.00 0.00 0.01 0.00 0.01 0.02 0.02 0.03 0.04 0.03 0.01 0.01 0.01 0.03 0.04 0.03 0.00 0.00 0.00 0.00 0.00 0.00 0.01 0.01 0.01 0.00 0.00 0.00 0.00 0.00 0.00 0.00 0.00 0.00 0.00 0.00 0.00 0.00
0.00 0.00 0.00 0.00 0.00 0.00 0.00 0.00 0.00 0.00 0.00 0.00 0.00 0.00 0.00 0.00 0.00 0.00 0.01 0.01 0.02 0.02 0.04 0.04 0.01 0.01 0.00 0.01 0.02 0.04 0.05 0.03 0.00 0.00 0.00 0.00 0.01 0.00 0.01 0.00 0.00 0.00 0.00 0.00 0.00 0.00 0.00 0.00 0.00 0.00 0.00 0.00 0.00 0.00
0.00 0.00 0.00 0.00 0.00 0.00 0.00 0.00 0.00 0.00 0.00 0.00 0.00 0.00 0.00 0.00 0.00 0.00 0.01 0.03 0.06 0.09 0.07 0.05 0.01 0.01 0.02 0.02 0.01 0.02 0.02 0.00 0.00 0.00 0.01 0.01 0.01 0.00 0.00 0.00 0.00 0.00 0.00 0.00 0.00 0.00 0.00 0.00 0.00 0.00 0.00 0.00 0.00 0.00
0.00 0.00 0.00 0.00 0.00 0.00 0.00 0.00 0.00 0.00 0.00 0.00 0.00 0.01 0.02 0.02 0.02 0.01 0.02 0.04 0.13 0.08 0.02 0.00 0.01 0.02 0.01 0.00 0.00 0.00 0.00 0.00 0.00 0.00 0.00 0.01 0.01 0.00 0.00 0.00 0.00 0.00 0.00 0.00 0.00 0.00 0.00 0.00 0.00 0.00 0.00 0.00 0.00 0.01
0.00 0.00 0.00 0.00 0.00 0.00 0.00 0.00 0.00 0.00 0.00 0.00 0.01 0.01 0.05 0.05 0.03 0.03 0.04 0.07 0.05 0.01 0.00 0.01 0.01 0.01 0.00 0.00 0.00 0.00 0.00 0.00 0.00 0.00 0.00 0.00 0.00 0.00 0.00 0.00 0.00 0.00 0.00 0.00 0.00 0.00 0.00 0.00 0.00 0.00 0.00 0.01 0.00 0.01
0.00 0.00 0.00 0.00 0.00 0.00 0.00 0.00 0.00 0.00 0.00 0.00 0.01 0.01 0.01 0.03 0.05 0.05 0.06 0.02 0.00 0.00 0.00 0.00 0.01 0.02 0.00 0.00 0.00 0.00 0.00 0.00 0.00 0.00 0.00 0.00 0.00 0.00 0.00 0.00 0.00 0.00 0.01 0.01 0.00 0.00 0.00 0.00 0.00 0.00 0.00 0.01 0.02 0.03
0.00 0.00 0.00 0.00 0.00 0.00 0.00 0.00 0.00 0.00 0.00 0.01 0.01 0.01 0.00 0.01 0.02 0.04 0.02 0.00 0.00 0.00 0.00 0.00 0.01 0.01 0.00 0.00 0.00 0.00 0.00 0.00 0.00 0.00 0.00 0.00 0.00 0.00 0.00 0.00 0.00 0.00 0.00 0.00 0.00 0.00 0.00 0.00 0.00 0.00 0.00 0.01 0.01 0.02
0.02 0.00 0.00 0.00 0.00 0.01 0.00 0.00 0.00 0.00 0.01 0.00 0.00 0.01 0.01 0.01 0.02 0.01 0.00 0.00 0.00 0.00 0.00 0.00 0.01 0.01 0.00 0.00 0.00 0.00 0.00 0.00 0.00 0.00 0.00 0.00 0.00 0.00 0.00 0.01 0.00 0.00 0.00 0.00 0.00 0.00 0.00 0.00 0.00 0.01 0.01 0.01 0.00 0.01
0.02 0.00 0.00 0.00 0.00 0.00 0.00 0.00 0.00 0.00 0.00 0.00 0.00 0.01 0.01 0.01 0.01 0.00 0.00 0.00 0.00 0.01 0.01 0.01 0.00 0.00 0.00 0.00 0.00 0.00 0.00 0.00 0.00 0.00 0.00 0.00 0.00 0.00 0.00 0.01 0.02 0.02 0.00 0.00 0.00 0.00 0.00 0.00 0.00 0.00 0.00 0.00 0.00 0.00
0.02 0.00 0.00 0.00 0.00 0.00 0.00 0.00 0.00 0.00 0.01 0.00 0.01 0.01 0.00 0.00 0.00 0.00 0.00 0.00 0.00 0.00 0.00 0.00 0.00 0.00 0.00 0.00 0.00 0.00 0.00 0.00 0.00 0.00 0.00 0.00 0.00 0.00 0.00 0.00 0.00 0.00 0.00 0.00 0.00 0.00 0.00 0.00 0.00 0.01 0.00 0.01 0.01 0.01
0.01 0.00 0.00 0.00 0.00 0.00 0.00 0.00 0.01 0.00 0.00 0.00 0.01 0.01 0.00 0.00 0.00 0.00 0.00 0.00 0.00 0.00 0.00 0.00 0.00 0.00 0.00 0.00 0.00 0.00 0.00 0.00 0.00 0.00 0.00 0.01 0.01 0.01 0.00 0.00 0.00 0.00 0.00 0.00 0.00 0.00 0.00 0.00 0.01 0.00 0.01 0.00 0.01 0.01
0.02 0.01 0.00 0.01 0.00 0.00 0.00 0.00 0.00 0.00 0.00 0.00 0.00 0.00 0.00 0.00 0.00 0.00 0.00 0.00 0.00 0.00 0.00 0.00 0.01 0.00 0.00 0.00 0.00 0.00 0.01 0.00 0.00 0.01 0.01 0.03 0.03 0.04 0.01 0.00 0.00 0.00 0.00 0.00 0.00 0.00 0.00 0.00 0.00 0.01 0.01 0.00 0.01 0.01
0.02 0.01 0.02 0.01 0.00 0.00 0.00 0.00 0.01 0.00 0.00 0.00 0.00 0.00 0.00 0.00 0.01 0.00 0.00 0.00 0.00 0.00 0.01 0.01 0.01 0.01 0.01 0.01 0.02 0.04 0.07 0.04 0.00 0.00 0.00 0.00 0.00 0.01 0.01 0.00 0.00 0.00 0.00 0.00 0.00 0.01 0.00 0.00 0.00 0.00 0.00 0.01 0.01 0.01
0.04 0.03 0.03 0.03 0.02 0.01 0.02 0.00 0.01 0.00 0.00 0.00 0.00 0.00 0.00 0.01 0.01 0.00 0.00 0.00 0.00 0.00 0.01 0.01 0.01 0.01 0.01 0.03 0.05 0.05 0.07 0.05 0.01 0.00 0.00 0.00 0.00 0.00 0.00 0.00 0.00 0.00 0.00 0.00 0.00 0.00 0.00 0.01 0.01 0.00 0.00 0.01 0.01 0.00
0.05 0.05 0.05 0.04 0.06 0.03 0.00 0.00 0.00 0.00 0.00 0.00 0.00 0.00 0.01 0.00 0.01 0.02 0.02 0.01 0.01 0.01 0.01 0.01 0.00 0.01 0.00 0.01 0.03 0.06 0.05 0.04 0.01 0.01 0.02 0.01 0.00 0.00 0.00 0.00 0.00 0.00 0.00 0.00 0.00 0.00 0.00 0.00 0.00 0.00 0.00 0.00 0.00 0.00
0.06 0.06 0.07 0.09 0.12 0.08 0.02 0.01 0.02 0.02 0.02 0.01 0.02 0.01 0.01 0.01 0.02 0.04 0.03 0.03 0.03 0.03 0.01 0.01 0.01 0.00 0.00 0.01 0.01 0.03 0.03 0.06 0.09 0.05 0.03 0.03 0.01 0.00 0.00 0.00 0.00 0.00 0.00 0.00 0.00 0.00 0.00 0.00 0.00 0.00 0.00 0.00 0.00 0.00